This is the latest recevied weather packets stored in our database for station/object LU4EGV-13. If no packets are shown the sender has not sent any weather packets the latest 10 day(s).
| Time | Temp. | Humidity | Pressure | Rain* | Wind** | Luminosity | Snow |
|---|---|---|---|---|---|---|---|
| 1778176297 | 15° C | 75% | 999.2 hPa | 0 mm | - | - | - |
| 1778175689 | 15° C | 77% | 998.4 hPa | 0 mm | - | - | - |
| 1778175083 | 14.44° C | 77% | 998 hPa | 0 mm | - | - | - |
| 1778174479 | 14.44° C | 77% | 998.8 hPa | 0 mm | - | - | - |
| 1778173881 | 15° C | 77% | 999 hPa | 0 mm | - | - | - |
| 1778173275 | 15° C | 76% | 999.6 hPa | 0 mm | - | - | - |
| 1778172657 | 15° C | 76% | 1000.2 hPa | 0 mm | - | - | - |
| 1778172053 | 15.56° C | 76% | 1000.3 hPa | 0 mm | - | - | - |
| 1778171446 | 15.56° C | 80% | 999.6 hPa | 0 mm | - | - | - |
| 1778170840 | 15.56° C | 81% | 998.9 hPa | 0 mm | - | - | - |
| 1778170235 | 15.56° C | 82% | 998.8 hPa | 0 mm | - | - | - |
| 1778169636 | 15.56° C | 82% | 998.9 hPa | 0 mm | - | - | - |
| 1778169029 | 15.56° C | 82% | 999.1 hPa | 0 mm | - | - | - |
| 1778168423 | 16.11° C | 82% | 998.9 hPa | 0 mm | - | - | - |
| 1778167809 | 16.11° C | 84% | 998.5 hPa | 0 mm | - | - | - |
| 1778167202 | 16.11° C | 85% | 998.8 hPa | 0 mm | - | - | - |
| 1778166597 | 16.11° C | 87% | 999.5 hPa | 0 mm | - | - | - |
| 1778165990 | 16.11° C | 88% | 1000 hPa | 0 mm | - | - | - |
| 1778165384 | 16.67° C | 88% | 999.8 hPa | 0 mm | - | - | - |
| 1778164778 | 16.67° C | 88% | 999.3 hPa | 0 mm | - | - | - |
| 1778164171 | 16.67° C | 89% | 999.1 hPa | 0 mm | - | - | - |
| 1778163565 | 16.11° C | 89% | 998.4 hPa | 0 mm | - | - | - |
| 1778162959 | 16.67° C | 89% | 998.9 hPa | 0 mm | - | - | - |
| 1778162353 | 16.67° C | 89% | 999.3 hPa | 0 mm | - | - | - |
| 1778161746 | 16.67° C | 89% | 999.1 hPa | 0 mm | - | - | - |
* Rain latest hour (hover to see other rain measurements)
** Current wind speed in m/s (hover to see current wind gust speed)